This is the latest recevied weather packets stored in our database for station/object W8RSN-13. If no packets are shown the sender has not sent any weather packets the latest 10 day(s).
| Time | Temp. | Humidity | Pressure | Rain* | Wind** | Luminosity | Snow |
|---|---|---|---|---|---|---|---|
| 1787674115 | 27.22° C | 49% | 1017.1 hPa | - | - | - | - |
| 1787673815 | 27.22° C | 49% | 1017.4 hPa | - | - | - | - |
| 1787673513 | 26.67° C | 52% | 1017.2 hPa | - | - | - | - |
| 1787673213 | 26.67° C | 53% | 1017 hPa | - | - | - | - |
| 1787672912 | 26.67° C | 54% | 1017.3 hPa | - | - | - | - |
| 1787672611 | 27.22° C | 53% | 1017.3 hPa | - | - | - | - |
| 1787672310 | 26.67° C | 51% | 1017.3 hPa | - | - | - | - |
| 1787672009 | 26.67° C | 51% | 1017.4 hPa | - | - | - | - |
| 1787671708 | 26.67° C | 52% | 1017 hPa | - | - | - | - |
| 1787671407 | 26.11° C | 52% | 1017.2 hPa | - | - | - | - |
| 1787671106 | 25.56° C | 54% | 1017.3 hPa | - | - | - | - |
| 1787670805 | 25.56° C | 55% | 1017.4 hPa | - | - | - | - |
| 1787670505 | 25.56° C | 55% | 1017.3 hPa | - | - | - | - |
| 1787670204 | 25.56° C | 54% | 1017.2 hPa | - | - | - | - |
| 1787669903 | 25.56° C | 54% | 1017.3 hPa | - | - | - | - |
| 1787669602 | 25.56° C | 55% | 1017.2 hPa | - | - | - | - |
| 1787669301 | 25.56° C | 55% | 1017.4 hPa | - | - | - | - |
| 1787669000 | 25.56° C | 55% | 1017.3 hPa | - | - | - | - |
| 1787668699 | 25.56° C | 54% | 1017.5 hPa | - | - | - | - |
| 1787668398 | 25.56° C | 55% | 1017.2 hPa | - | - | - | - |
| 1787668097 | 25° C | 54% | 1017.2 hPa | - | - | - | - |
| 1787667796 | 25° C | 54% | 1017.1 hPa | - | - | - | - |
| 1787667516 | 25° C | 54% | 1017 hPa | - | - | - | - |
| 1787667215 | 25° C | 54% | 1017.1 hPa | - | - | - | - |
| 1787666914 | 25° C | 54% | 1017.1 hPa | - | - | - | - |
* Rain since midnight (hover to see other rain measurements)
** Current wind speed in m/s (hover to see current wind gust speed)